This is the latest recevied weather packets stored in our database for station/object W3JGB. If no packets are shown the sender has not sent any weather packets the latest 10 day(s).
| Time | Temp. | Humidity | Pressure | Rain* | Wind** | Luminosity | Snow |
|---|---|---|---|---|---|---|---|
| 1777474415 | 12.22° C | 91% | 1012.8 hPa | 0 mm | - | 55 W/m² | - |
| 1777474111 | 12.22° C | 91% | 1013 hPa | 0 mm | - | 55 W/m² | - |
| 1777473810 | 12.22° C | 90% | 1013.1 hPa | 0 mm | - | 61 W/m² | - |
| 1777473506 | 12.22° C | 91% | 1013.2 hPa | 0 mm | - | 61 W/m² | - |
| 1777473201 | 11.67° C | 90% | 1013.1 hPa | 0 mm | - | 57 W/m² | - |
| 1777472898 | 11.67° C | 90% | 1013.1 hPa | 0 mm | - | 53 W/m² | - |
| 1777472595 | 12.22° C | 90% | 1013.3 hPa | 0 mm | - | 46 W/m² | - |
| 1777472292 | 11.67° C | 90% | 1013.2 hPa | 0 mm | - | 56 W/m² | - |
| 1777471988 | 11.67° C | 90% | 1013.1 hPa | 0 mm | - | 49 W/m² | - |
| 1777471684 | 11.67° C | 90% | 1013.3 hPa | 0 mm | - | 48 W/m² | - |
| 1777471381 | 11.67° C | 90% | 1013.1 hPa | 0 mm | - | 42 W/m² | - |
| 1777471077 | 11.67° C | 90% | 1013.1 hPa | 0 mm | - | 44 W/m² | - |
| 1777470774 | 11.67° C | 91% | 1013.5 hPa | 0 mm | - | 40 W/m² | - |
| 1777470470 | 11.67° C | 91% | 1013.1 hPa | 0 mm | - | 45 W/m² | - |
| 1777470167 | 11.67° C | 91% | 1013 hPa | 0 mm | - | 42 W/m² | - |
| 1777469863 | 11.67° C | 90% | 1013.1 hPa | 0 mm | - | 54 W/m² | - |
| 1777469560 | 11.67° C | 91% | 1013.1 hPa | 0 mm | - | 55 W/m² | - |
| 1777469260 | 11.67° C | 91% | 1013.3 hPa | 0 mm | - | 42 W/m² | - |
| 1777468955 | 11.67° C | 91% | 1013.1 hPa | 0 mm | - | 46 W/m² | - |
| 1777468651 | 11.67° C | 91% | 1013 hPa | 0 mm | - | 55 W/m² | - |
| 1777468348 | 11.67° C | 91% | 1013.2 hPa | 0 mm | - | 52 W/m² | - |
| 1777468044 | 11.67° C | 91% | 1013.3 hPa | 0 mm | - | 48 W/m² | - |
| 1777467740 | 11.67° C | 91% | 1013.3 hPa | 0 mm | - | 48 W/m² | - |
| 1777467435 | 11.67° C | 90% | 1013.3 hPa | 0 mm | - | 54 W/m² | - |
| 1777467131 | 11.67° C | 90% | 1013.2 hPa | 0 mm | - | 54 W/m² | - |
* Rain latest hour (hover to see other rain measurements)
** Current wind speed in m/s (hover to see current wind gust speed)